This is the latest recevied weather packets stored in our database for station/object PY5KT-13. If no packets are shown the sender has not sent any weather packets the latest 10 day(s).
| Time | Temp. | Humidity | Pressure | Rain* | Wind** | Luminosity | Snow |
|---|---|---|---|---|---|---|---|
| 1777375130 | 14.44° C | 95% | 1019.8 hPa | 0 mm | - | 17 W/m² | - |
| 1777374828 | 14.44° C | 96% | 1019.9 hPa | 0 mm | - | 21 W/m² | - |
| 1777374526 | 14.44° C | 96% | 1019.9 hPa | 0 mm | - | 18 W/m² | - |
| 1777374225 | 14.44° C | 96% | 1019.9 hPa | 0 mm | - | 17 W/m² | - |
| 1777373923 | 14.44° C | 95% | 1019.7 hPa | 0 mm | - | 19 W/m² | - |
| 1777373621 | 14.44° C | 96% | 1019.8 hPa | 0 mm | - | 16 W/m² | - |
| 1777373319 | 14.44° C | 96% | 1019.7 hPa | 0.25 mm | - | 17 W/m² | - |
| 1777373018 | 14.44° C | 95% | 1019.6 hPa | 0.25 mm | - | 15 W/m² | - |
| 1777372716 | 14.44° C | 95% | 1019.7 hPa | 0.25 mm | - | 14 W/m² | - |
| 1777372414 | 14.44° C | 96% | 1019.8 hPa | 0.25 mm | - | 12 W/m² | - |
| 1777372112 | 15° C | 96% | 1019.8 hPa | 0.25 mm | - | 10 W/m² | - |
| 1777371810 | 15° C | 96% | 1019.7 hPa | 0.25 mm | - | 9 W/m² | - |
| 1777371509 | 14.44° C | 96% | 1019.6 hPa | 0.51 mm | - | 11 W/m² | - |
| 1777371207 | 14.44° C | 96% | 1019.4 hPa | 0.51 mm | - | 6 W/m² | - |
| 1777370905 | 14.44° C | 96% | 1019.3 hPa | 0.51 mm | - | 3 W/m² | - |
| 1777370604 | 14.44° C | 96% | 1019.2 hPa | 0.51 mm | - | 2 W/m² | - |
| 1777370302 | 14.44° C | 96% | 1019.1 hPa | 0.51 mm | - | 1 W/m² | - |
| 1777370000 | 14.44° C | 96% | 1019 hPa | 0.51 mm | - | 1 W/m² | - |
| 1777369699 | 14.44° C | 96% | 1018.9 hPa | 0.25 mm | - | 0 W/m² | - |
| 1777369397 | 14.44° C | 96% | 1019 hPa | 0.25 mm | - | 1 W/m² | - |
| 1777369095 | 14.44° C | 95% | 1019 hPa | 0.25 mm | - | 0 W/m² | - |
| 1777368794 | 15° C | 95% | 1018.9 hPa | 0.25 mm | - | 0 W/m² | - |
| 1777368492 | 14.44° C | 95% | 1018.8 hPa | 0.25 mm | - | 0 W/m² | - |
| 1777368191 | 15° C | 95% | 1018.8 hPa | 0.25 mm | - | 0 W/m² | - |
| 1777367890 | 15° C | 95% | 1018.7 hPa | 0 mm | - | 0 W/m² | - |
* Rain latest hour (hover to see other rain measurements)
** Current wind speed in m/s (hover to see current wind gust speed)